User: anonymous   Login
Location: Vancouver
(49.2500°N, 123.1330°W)
Time: 21:37:49
(UTC-08:00)
Language:

Cosmos 676 Rocket - Orbit

View from above orbital plane
View from above orbital plane
View from above satellite
View from above satellite

Ground track
Ground track

The orbit data is extracted from the following two-line orbital elements,

1 07434U 74071B   15030.89286010  .00000285  00000-0  10596-3 0  4196
2 07434 074.0494 008.3582 0019716 135.9499 240.4664 14.36395401112037
Epoch (UTC): 30 January 2015 21:25:43
Eccentricity: 0.0019716
inclination: 74.0494°
perigee height: 756 km
apogee height: 784 km
right ascension of ascending node: 8.3582°
argument of perigee: 135.9499°
revolutions per day: 14.36395401
mean anomaly at epoch: 240.4664°
orbit number at epoch: 11203

The dashed part of the orbit path shows where the satellite is in the earth's shadow,  

DLR